{"data":{"norad_id":52422,"epoch":"2026-05-25T05:10:33.374784Z","epoch_age_seconds":53481,"freshness":"FRESH","line1":"1 52422U 22047AE  26145.21566406  .00025232  00000+0  46647-3 0  9991","line2":"2 52422  97.3401 235.8578 0005647 148.3842 211.7749 15.49028111227599","mean_motion":15.49028111,"eccentricity":0.0005647,"inclination_deg":97.3401,"raan_deg":235.8578,"arg_perigee_deg":148.3842,"mean_anomaly_deg":211.7749,"bstar":0.00046647,"rev_number":22759,"period_min":92.961515015398,"perigee_km":415.72925696826,"apogee_km":423.40658490596,"semimajor_km":6797.7049209371,"source":"CELESTRAK","updated_at":"2026-05-25T13:37:57.719707Z"}}